Find Starlink 30576

NORAD ID: 58065 Int'l Des: 2023-158 Owner: SPXS Country: US Constellation: starlink operational
LEOCIRCULAR

当前视图

正在加载3D地球...

About Starlink 30576

Starlink 30576 (NORAD 58065) is a starlink constellation satellite (v2 mini) launched Oct 13, 2023 by SPXS of US. It operates in LEO, CIRCULAR orbit with a mass of 730.00 kg.

关于 Starlink 30576

正在加载描述...

即将过境

Passes for default location (London). Set your location on the main map for personalized predictions.

高度历史

Loading altitude history...

两行轨道根数

1 58065U 23158Q 26177.90797968 .00000038 00000-0 10894-4 0 9998
2 58065 43.0033 130.2338 0001306 261.9532 98.1171 15.27572668150278
Epoch: Jun 26, 2026 • Age: 16 hours

当前状态

高度 486.9 km
速度 7.63 km/s
星下点 42.18°N, 78.4°E
发射日期 Oct 13, 2023
运行时间 2.7 years
类型 internet

技术详情

分类 Payload
质量 730.00 kg
干质量 700.00 kg
总质量 730.00 kg
长度 0.30 m
直径 4.10 m
跨度 29.00 m
形状 Box + pan
制造商 SPXS
平台类型 Starlink V2M
阶段状态 In Orbit
所有者/国家 SPXS/US

Most Searched